Location: Quebec
(46.8000°N, 71.2500°W)
Time: 17:13:55
(UTC-04:00)

ISS - Pass Details

Date: 11 October 2017
Orbit: 401 x 408 km, 51.6° (Epoch: 23 October)

Event Time Altitude Azimuth Distance (km) Brightness Sun altitude
Rises 18:49:27 0° 295° (WNW) 2,327 1.3 -8.4°
Reaches altitude 10° 18:51:33 10° 299° (WNW) 1,466 0.0 -8.8°
Maximum altitude 18:54:49 64° 22° (NNE) 453 -3.7 -9.3°
Enters shadow 18:57:33 14° 103° (ESE) 1,248 -2.0 -9.8°
